Location: Kearney
(40.6990°N, 99.0810°W)
Time: 02:13:27
(UTC-06:00)

Cosmos 1184 Rocket - Pass Details

Date: 18 December 2017
Orbit: 420 x 434 km, 81.2° (Epoch: 21 January)

Event Time Altitude Azimuth Distance (km) Brightness Sun altitude
Rises 18:37:09 0° 170° (S) 2,356 6.7 -15.7°
Reaches altitude 10° 18:39:17 10° 161° (SSE) 1,497 5.5 -16.1°
Enters shadow 18:41:39 31° 120° (ESE) 760 3.7 -16.5°
